03:44
Airports
History
Links
Donate
Help keep this website running!
PayPal
Bitcoin
This page is community maintained. The information is intended for PC simulator navigation or reference.
Always use approved charts for navigation.
VT06
Santas
Santas (VT06)
Putney, Vermont, United States (5346)
4
Lat/Lng:43° 0' 16" N / 72° 28' 25.3" W
43.004444 / -72.473694
Elevation:673'ft / 205mMSL
ID / ICAO:VT06
Runways:1
Longest:17-35
Grass 612m / 2,006ft
Nearby Weather03:23 GMT 2017-12-13
Nearby weather at KEEN, Dillant-hopkins located 12.6 nautical miles from VT06
Altimeter: 29.35
Visibility: 10.0 statute miles
Wind: 5 knots (from 320°)
Temp: -1°c / 30°f
Humidity: 92.9%

METAR: KEEN 130323Z AUTO 32005KT 10SM UP FEW009 SCT018 OVC034 M01/M02 A2935 RMK AO2 P0000 FZRANO

(Powered by phpweather)
Nearby VORs <50NM
Nearby NDBs
Runway 17 / 35
Dimensions:611.5 x 15.2m 2006' x 50'ft
Surface:Grass
Runway 17 [A]Runway 35 [B]
Heading:154°TH 334°TH
Lat:
Lng:
43° 0' 24.95"N
72° 28' 31.01"W
43° 0' 7.05"N
72° 28' 19.59"W
User Notes and Comments
43° 0' 16" N / 72° 28' 25.3" W
Distance To
Airport ID:
Nearby Airports
(R) Frank D. Comerford 3.0 NM
NH39 NE 47°
(R) Major W. Guth 4.0 NM
VT34 NNW 346°
4 Moores Field 6.2 NM
VT41 SSW 207°
(R) Onyon 9.1 NM
VT43 W 276°
(U) Dillant-hopkins 12.6 NM
KEEN ( WX ) SE 125°
4 Blodgett 17.0 NM
VT47 S 180°
4 North Windham 19.2 NM
VT05 NW 321°
VFR Chart
Flight Planning at SkyVector.com